Location: Northern Prairie Star Party
(53.2167°N, 112.5333°W)
Time: 00:29:02
(UTC-06:00)

Amateur Radio Satellites - All Passes

Search period start: 26 August 2016 23:59
Search period end: 27 August 2016 23:59
Location: Northern Prairie Star Party, 53.2167°N, 112.5333°W

Satellite Date Start Highest point End Downlink Frequencies (MHz)
Time Altitude Azimuth
AISAT 27 Aug 00:00:24 00:04:49 67° 71° (ENE) 00:09:17 437.250
DUCHIFAT 1 27 Aug 00:02:25 00:04:34 14° 87° (E) 00:06:43 145.980
QB50P2 27 Aug 00:03:15 00:05:58 16° 89° (E) 00:08:41 145.880/145.840
TISAT 1 27 Aug 00:03:49 00:05:51 13° 53° (NE) 00:07:52 437.305
POLYITAN 1 27 Aug 00:05:46 00:08:30 17° 89° (E) 00:11:13 437.675
JAS-2 27 Aug 00:07:02 00:11:13 17° 84° (E) 00:15:40 435.910
UNISAT 6 27 Aug 00:13:17 00:17:39 86° 285° (WNW) 00:21:56 437.425
UKube-1 27 Aug 00:14:43 00:18:55 51° 68° (ENE) 00:23:09 .
NANOSAT C BR1 27 Aug 00:15:05 00:18:08 19° 90° (E) 00:21:09 145.865
RS-15 27 Aug 00:17:15 00:22:16 14° 89° (E) 00:27:22 29.354- 29.394
50 SAT 27 Aug 00:22:18 00:25:53 80° 254° (WSW) 00:29:30 437.505
DANDE 27 Aug 00:39:10 00:40:54 16° 89° (E) 00:42:46 436.750
O/OREOS (USA 219) 27 Aug 00:44:00 00:48:30 54° 247° (WSW) 00:52:59 437.305
SWISSCUBE 27 Aug 00:46:07 00:47:40 11° 47° (NE) 00:49:13 437.505
VELOX 1 27 Aug 00:48:05 00:52:24 50° 260° (W) 00:56:47 145.980
ANTELSAT 27 Aug 00:50:33 00:54:38 41° 294° (WNW) 00:58:38 437.575/2403.000
SO-50 27 Aug 00:52:40 00:57:06 36° 122° (ESE) 01:01:29 436.795
CUBEBUG 1 27 Aug 00:52:51 00:56:59 39° 263° (W) 01:01:10 437.445
QB50P1 27 Aug 00:57:55 01:02:03 48° 99° (E) 01:06:08 145.935-145.965
BUGSAT 1 27 Aug 01:00:39 01:03:59 22° 92° (E) 01:07:15 437.445
BEESAT 27 Aug 01:02:19 01:04:44 14° 50° (NE) 01:07:09 436.000
POPSAT HIP 1 27 Aug 01:07:49 01:12:01 58° 101° (ESE) 01:16:10 437.405
DX 1 27 Aug 01:08:37 01:12:48 43° 261° (W) 01:17:02 434.975-435.025
Cosmos 2499 27 Aug 01:14:00 01:20:45 47° 270° (W) 01:27:26 435.465 / 435.565
SPROUT 27 Aug 01:14:29 01:18:41 50° 260° (W) 01:22:55 437.525
TIGRISAT 27 Aug 01:22:11 01:25:41 24° 300° (WNW) 01:29:08 435.000
ESTCUBE 1 27 Aug 01:27:19 01:30:01 16° 273° (W) 01:32:43 437.505/2401.250
GONETS M04 27 Aug 01:27:35 01:35:33 39° 276° (W) 01:43:30
CUSAT 1 27 Aug 01:31:45 01:34:40 32° 295° (WNW) 01:38:20 437.405
TISAT 1 27 Aug 01:36:33 01:40:48 75° 72° (ENE) 01:45:04 437.305
DUCHIFAT 1 27 Aug 01:36:37 01:40:53 83° 284° (WNW) 01:45:04 145.980
Oscar 19 27 Aug 01:36:56 01:39:40 14° 85° (E) 01:42:23 437.125/150
QB50P2 27 Aug 01:38:02 01:42:16 69° 288° (WNW) 01:46:27 145.880/145.840
AISAT 27 Aug 01:38:36 01:41:46 19° 270° (W) 01:44:57 437.250
POLYITAN 1 27 Aug 01:40:34 01:44:48 69° 288° (WNW) 01:48:58 437.675
ITUPSAT 1 27 Aug 01:47:06 01:51:07 28° 60° (ENE) 01:55:08 437.325
NANOSAT C BR1 27 Aug 01:50:05 01:54:15 59° 289° (WNW) 01:58:23 145.865
JAS-2 27 Aug 01:50:44 01:57:16 71° 103° (ESE) 02:04:35 435.910
UNISAT 6 27 Aug 01:51:18 01:53:45 15° 306° (NW) 01:56:09 437.425
UKube-1 27 Aug 01:51:48 01:55:15 23° 267° (W) 01:58:44 .
SWISSCUBE 27 Aug 02:19:52 02:24:29 53° 68° (ENE) 02:29:08 437.505
RS-15 27 Aug 02:20:25 02:31:25 52° 115° (ESE) 02:42:57 29.354- 29.394
DANDE 27 Aug 02:21:14 02:23:28 23° 295° (WNW) 02:25:59 436.750
SO-50 27 Aug 02:32:44 02:37:30 54° 323° (NW) 02:42:11 436.795
QB50P1 27 Aug 02:34:09 02:37:37 25° 299° (WNW) 02:41:03 145.935-145.965
BUGSAT 1 27 Aug 02:35:35 02:39:37 48° 292° (WNW) 02:43:36 437.445
BEESAT 27 Aug 02:36:59 02:41:42 67° 70° (ENE) 02:46:27 436.000
Gurwin Techsat 1B 27 Aug 02:39:34 02:43:47 23° 90° (E) 02:47:58 435.225
POPSAT HIP 1 27 Aug 02:44:16 02:47:28 21° 301° (WNW) 02:50:40 437.405
MOZHAYETS 4 27 Aug 02:58:55 03:02:25 22° 58° (ENE) 03:05:55
KKS-1 27 Aug 02:59:23 03:02:35 20° 56° (NE) 03:05:48 437.445
Cosmos 2491 27 Aug 03:09:31 03:14:10 15° 36° (NE) 03:18:49 435.465 / 435.565
DUCHIFAT 1 27 Aug 03:13:43 03:15:56 14° 306° (NW) 03:18:08 145.980
TISAT 1 27 Aug 03:14:25 03:16:59 15° 272° (W) 03:19:34 437.305
Oscar 19 27 Aug 03:14:38 03:19:53 78° 105° (ESE) 03:25:06 437.125/150
QB50P2 27 Aug 03:15:36 03:17:20 12° 308° (NW) 03:19:02 145.880/145.840
POLYITAN 1 27 Aug 03:18:11 03:19:50 12° 308° (NW) 03:21:30 437.675
ITUPSAT 1 27 Aug 03:24:05 03:28:44 52° 259° (W) 03:33:25 437.325
NANOSAT C BR1 27 Aug 03:28:08 03:29:08 11° 310° (NW) 03:30:09 145.865
JAS-2 27 Aug 03:36:25 03:41:59 33° 302° (WNW) 03:48:09 435.910
STARS 27 Aug 03:37:09 03:40:35 22° 58° (ENE) 03:44:01 437.465
AO-7 27 Aug 03:54:48 04:01:03 23° 87° (E) 04:07:14 29.400- 29.500
SWISSCUBE 27 Aug 03:58:39 04:02:35 25° 267° (W) 04:06:33 437.505
SO-50 27 Aug 04:15:01 04:18:55 24° 345° (NNW) 04:22:45 436.795
BEESAT 27 Aug 04:16:26 04:19:57 20° 270° (W) 04:23:30 436.000
CUBESAT XI-V 27 Aug 04:17:03 04:20:22 20° 57° (ENE) 04:23:44 437.345
Gurwin Techsat 1B 27 Aug 04:18:56 04:24:14 68° 290° (WNW) 04:29:31 435.225
ITAMSAT 1 27 Aug 04:27:06 04:32:13 55° 101° (E) 04:37:18 435.822/435.867
RS-15 27 Aug 04:31:45 04:43:35 73° 323° (NW) 04:55:59 29.354- 29.394
KKS-1 27 Aug 04:34:12 04:38:42 74° 257° (WSW) 04:43:13 437.445
MOZHAYETS 4 27 Aug 04:34:41 04:39:13 63° 259° (WSW) 04:43:46
Oscar 19 27 Aug 04:54:43 04:58:43 23° 305° (NW) 05:02:41 437.125/150
Cosmos 2491 27 Aug 05:05:39 05:14:02 44° 65° (ENE) 05:22:23 435.465 / 435.565
STARS 27 Aug 05:12:11 05:16:36 61° 258° (WSW) 05:21:01 437.465
STRAND 1 27 Aug 05:23:37 05:23:51 10° 43° (NE) 05:24:04 437.568
HORYU 2 27 Aug 05:42:05 05:45:17 19° 90° (E) 05:48:29 437.375
BRITE-PL 27 Aug 05:46:12 05:49:28 15° 82° (E) 05:52:44 437.365/2234.400
AO-7 27 Aug 05:46:46 05:55:10 81° 110° (ESE) 06:03:28 29.400- 29.500
CUBESAT XI-V 27 Aug 05:52:40 05:57:16 74° 256° (WSW) 06:01:57 437.345
SO-50 27 Aug 05:57:07 06:00:50 22° 10° (N) 06:04:29 436.795
Gurwin Techsat 1B 27 Aug 06:00:12 06:03:19 16° 311° (NW) 06:06:27 435.225
ITAMSAT 1 27 Aug 06:07:01 06:11:28 30° 301° (WNW) 06:15:55 435.822/435.867
KKS-1 27 Aug 06:14:42 06:16:05 11° 275° (W) 06:17:28 437.445
YUBILEINY 27 Aug 06:28:15 06:36:13 40° 84° (E) 06:44:11 435.215
AO-85 27 Aug 06:30:50 06:35:36 37° 122° (ESE) 06:40:06 145.980
RS-15 27 Aug 06:46:38 06:58:17 49° 355° (N) 07:10:15 29.354- 29.394
Cubesat XI-IV 27 Aug 06:50:48 06:54:47 21° 89° (E) 06:58:43 437.490
STRAND 1 27 Aug 06:57:01 07:01:48 42° 64° (ENE) 07:06:36 437.568
CUTE-I 27 Aug 07:02:37 07:07:01 26° 92° (E) 07:11:24 437.470
Cosmos 2491 27 Aug 07:02:40 07:11:15 58° 269° (W) 07:19:49 435.465 / 435.565
GOMX 1 27 Aug 07:02:53 07:07:39 29° 91° (E) 07:12:13 467.674
NOAA 15 27 Aug 07:05:47 07:10:35 33° 95° (E) 07:15:19 137.62
Cosmos 2504 27 Aug 07:07:12 07:13:39 26° 80° (E) 07:19:47 435.465 / 435.565
DOVE 4 27 Aug 07:13:30 07:16:56 18° 85° (E) 07:20:14 437.250
HORYU 2 27 Aug 07:17:53 07:22:16 63° 290° (WNW) 07:26:38 437.375
BRITE-PL 27 Aug 07:23:09 07:28:52 74° 103° (ESE) 07:34:33 437.365/2234.400
PRISM 27 Aug 07:29:30 07:31:10 12° 52° (NE) 07:32:50 437.425
CUBESAT XI-V 27 Aug 07:33:55 07:35:32 12° 277° (W) 07:37:08 437.345
NOAA 18 27 Aug 07:37:11 07:42:22 40° 98° (E) 07:47:29 137.9125
SO-50 27 Aug 07:37:53 07:42:24 44° 34° (NE) 07:46:47 436.795
AO-7 27 Aug 07:40:02 07:47:19 35° 313° (NW) 07:54:34 29.400- 29.500
LilacSat-2 27 Aug 07:57:49 08:01:37 76° 102° (ESE) 08:05:24 437.200
CINEMA 3 27 Aug 07:59:31 08:01:34 13° 83° (E) 08:03:35 145.822/145.860
AO-85 27 Aug 08:10:55 08:16:00 56° 321° (NW) 08:20:44 145.980
YUBILEINY 27 Aug 08:23:56 08:32:41 63° 287° (WNW) 08:41:29 435.215
HO-68 27 Aug 08:27:37 08:33:27 26° 89° (E) 08:39:14 435.675
Cubesat XI-IV 27 Aug 08:30:07 08:35:27 76° 290° (WNW) 08:40:46 437.490
SEEDS 27 Aug 08:33:06 08:35:19 14° 87° (E) 08:37:31 437.485
CUSAT 1 27 Aug 08:33:13 08:35:15 12° 49° (NE) 08:37:25 437.405
STRAND 1 27 Aug 08:36:23 08:41:04 36° 264° (W) 08:45:48 437.568
GOMX 1 27 Aug 08:40:39 08:46:03 57° 291° (WNW) 08:51:14 467.674
CUTE-I 27 Aug 08:42:14 08:47:30 62° 291° (WNW) 08:52:43 437.470
NOAA 15 27 Aug 08:45:26 08:50:33 49° 295° (WNW) 08:55:39 137.62
ANTELSAT 27 Aug 08:46:01 08:46:54 10° 49° (NE) 08:47:46 437.575/2403.000
DOVE 4 27 Aug 08:50:08 08:55:21 84° 286° (WNW) 09:00:17 437.250
CANX-2 27 Aug 08:52:25 08:56:12 30° 95° (E) 08:59:59 2200.000
HORYU 2 27 Aug 08:56:17 08:58:00 12° 310° (NW) 08:59:45 437.375
Cosmos 2504 27 Aug 08:57:52 09:06:15 85° 281° (W) 09:14:03 435.465 / 435.565
CUTE 1.7 + AOD 2 27 Aug 08:58:38 09:02:25 31° 95° (E) 09:06:12 437.475
RS-15 27 Aug 09:01:18 09:13:28 60° 27° (NNE) 09:25:42 29.354- 29.394
Cosmos 2491 27 Aug 09:01:39 09:06:06 15° 293° (WNW) 09:10:33 435.465 / 435.565
PRISM 27 Aug 09:01:39 09:05:45 71° 71° (ENE) 09:09:53 437.425
BRITE-PL 27 Aug 09:02:14 09:06:51 26° 303° (WNW) 09:11:29 437.365/2234.400
AAUSAT CUBESAT 2 27 Aug 09:05:27 09:08:08 16° 89° (E) 09:10:49 437.432
COMPASS 1 27 Aug 09:12:30 09:15:52 23° 92° (E) 09:19:14 437.405
TIGRISAT 27 Aug 09:14:46 09:17:38 17° 55° (NE) 09:20:29 435.000
NOAA 18 27 Aug 09:17:56 09:23:04 42° 298° (WNW) 09:28:10 137.9125
SO-50 27 Aug 09:18:30 09:22:56 45° 236° (SW) 09:27:15 436.795
AIST 1 27 Aug 09:22:12 09:25:28 21° 86° (E) 09:28:46
LilacSat-2 27 Aug 09:33:18 09:35:26 15° 303° (WNW) 09:37:34 437.200
AO-7 27 Aug 09:33:23 09:37:47 16° 338° (NNW) 09:42:11 29.400- 29.500
CINEMA 3 27 Aug 09:34:52 09:39:34 84° 104° (ESE) 09:44:00 145.822/145.860
UNISAT 6 27 Aug 09:41:59 09:45:51 27° 62° (ENE) 09:49:38 437.425
Oscar 11 27 Aug 09:43:16 09:46:10 17° 89° (E) 09:49:03 145.826/435.025
FUNcube-1 27 Aug 09:50:03 09:52:56 18° 89° (E) 09:55:47 145.935
AO-85 27 Aug 09:53:20 09:57:21 24° 343° (NNW) 10:01:08 145.980
UWE-3 27 Aug 09:55:04 09:58:50 30° 94° (E) 10:02:31 435.000/436.395/437.385
CUBEBUG 2 27 Aug 09:56:13 10:00:22 44° 98° (E) 10:04:22 437.445
SEEDS 27 Aug 10:07:23 10:11:36 82° 286° (WNW) 10:15:49 437.485
ZACube-1 27 Aug 10:10:46 10:14:26 29° 94° (E) 10:18:03 437.345
Cubesat XI-IV 27 Aug 10:11:20 10:14:45 18° 310° (NW) 10:18:09 437.490
CUSAT 1 27 Aug 10:12:57 10:18:32 45° 69° (ENE) 10:25:25 437.405
HO-68 27 Aug 10:14:47 10:22:01 83° 291° (WNW) 10:29:11 435.675
ANTELSAT 27 Aug 10:18:15 10:22:42 53° 69° (ENE) 10:27:04 437.575/2403.000
BEESAT 2 27 Aug 10:20:16 10:20:45 10° 110° (ESE) 10:21:14 435.950
GOMX 1 27 Aug 10:20:16 10:23:02 14° 312° (NW) 10:25:46 467.674
QB50P1 27 Aug 10:22:54 10:25:06 14° 54° (NE) 10:27:17 145.935-145.965
CUTE-I 27 Aug 10:23:44 10:26:36 15° 313° (NW) 10:29:27 437.470
YUBILEINY 27 Aug 10:25:28 10:31:40 20° 315° (NW) 10:37:54 435.215
NOAA 15 27 Aug 10:27:10 10:29:13 12° 316° (NW) 10:31:15 137.62
CANX-2 27 Aug 10:28:14 10:32:07 36° 294° (WNW) 10:36:00 2200.000
JAS-2 27 Aug 10:28:49 10:31:37 14° 43° (NE) 10:34:31 435.910
DOVE 4 27 Aug 10:28:50 10:32:17 18° 307° (NW) 10:35:38 437.250
ISS 27 Aug 10:29:00 10:31:36 21° 148° (SSE) 10:34:10 145.825
POPSAT HIP 1 27 Aug 10:32:19 10:34:58 16° 56° (NE) 10:37:36 437.405
CUTE 1.7 + AOD 2 27 Aug 10:34:26 10:38:19 36° 294° (WNW) 10:42:12 437.475
BEESAT 3 27 Aug 10:36:10 10:39:23 24° 119° (ESE) 10:42:38 437.485
PRISM 27 Aug 10:39:04 10:41:33 15° 271° (W) 10:44:04 437.425
AAUSAT CUBESAT 2 27 Aug 10:39:56 10:44:04 68° 288° (WNW) 10:48:13 437.432
DELFI C3 27 Aug 10:47:39 10:51:13 30° 95° (E) 10:54:46 145.870
COMPASS 1 27 Aug 10:47:39 10:51:40 47° 291° (WNW) 10:55:41 437.405
GONETS M04 27 Aug 10:48:18 10:52:35 15° 66° (ENE) 10:56:52
TIGRISAT 27 Aug 10:49:10 10:53:46 89° 244° (WSW) 10:58:18 435.000
Cosmos 2504 27 Aug 10:54:18 11:00:48 25° 304° (NW) 11:07:00 435.465 / 435.565
AIST 1 27 Aug 10:58:28 11:02:43 53° 286° (WNW) 11:07:04
DUCHIFAT 1 27 Aug 10:59:35 11:02:59 24° 61° (ENE) 11:06:25 145.980
NOAA 18 27 Aug 11:00:55 11:02:26 11° 320° (NW) 11:03:56 137.9125
HUMSAT D 27 Aug 11:01:10 11:04:25 22° 92° (E) 11:07:40 437.325/437.525
QB50P2 27 Aug 11:01:20 11:04:59 28° 63° (ENE) 11:08:39 145.880/145.840
POLYITAN 1 27 Aug 11:03:50 11:07:30 28° 63° (ENE) 11:11:11 437.675
DANDE 27 Aug 11:05:40 11:10:14 43° 71° (ENE) 11:16:12 436.750
NANOSAT C BR1 27 Aug 11:12:43 11:16:29 32° 64° (ENE) 11:20:18 145.865
CINEMA 3 27 Aug 11:13:00 11:16:05 18° 305° (NW) 11:19:05 145.822/145.860
RS-15 27 Aug 11:14:26 11:26:40 72° 236° (SW) 11:38:48 29.354- 29.394
UNISAT 6 27 Aug 11:17:57 11:22:23 48° 260° (W) 11:26:46 437.425
Oscar 11 27 Aug 11:18:28 11:22:46 68° 288° (WNW) 11:27:03 145.826/435.025
AO-7 27 Aug 11:24:19 11:27:15 12° 6° (N) 11:30:10 29.400- 29.500
FUNcube-1 27 Aug 11:25:28 11:29:37 60° 288° (WNW) 11:33:41 145.935
UWE-3 27 Aug 11:31:29 11:35:22 36° 294° (WNW) 11:39:11 435.000/436.395/437.385
CUBEBUG 2 27 Aug 11:33:13 11:36:50 26° 298° (WNW) 11:40:21 437.445
AO-85 27 Aug 11:35:42 11:39:15 20° 7° (N) 11:42:37 145.980
ESTCUBE 1 27 Aug 11:36:20 11:37:52 12° 84° (E) 11:39:25 437.505/2401.250
PCSat 27 Aug 11:38:51 11:40:47 12° 102° (ESE) 11:42:43 145.827
SEEDS 27 Aug 11:44:31 11:46:40 14° 305° (NW) 11:48:48 437.485
ZACube-1 27 Aug 11:46:57 11:50:49 37° 294° (WNW) 11:54:39 437.345
BEESAT 2 27 Aug 11:53:51 11:57:47 65° 129° (SE) 12:01:46 435.950
CUSAT 1 27 Aug 11:54:57 12:00:37 46° 265° (W) 12:07:33 437.405
BUGSAT 1 27 Aug 11:55:48 11:59:42 36° 66° (ENE) 12:03:37 437.445
QB50P1 27 Aug 11:55:55 12:00:13 80° 73° (ENE) 12:04:30 145.935-145.965
ANTELSAT 27 Aug 11:55:59 11:59:42 24° 268° (W) 12:03:21 437.575/2403.000
HO-68 27 Aug 12:03:14 12:08:53 26° 313° (NW) 12:14:31 435.675
ISS 27 Aug 12:04:25 12:07:39 56° 168° (SSE) 12:10:53 145.825
Cosmos 2499 27 Aug 12:05:31 12:12:04 29° 82° (E) 12:18:16 435.465 / 435.565
POPSAT HIP 1 27 Aug 12:05:54 12:10:12 85° 256° (WSW) 12:14:31 437.405
JAS-2 27 Aug 12:10:19 12:15:28 58° 67° (ENE) 12:21:07 435.910
BEESAT 3 27 Aug 12:12:55 12:16:48 57° 319° (NW) 12:20:44 437.485
AAUSAT CUBESAT 2 27 Aug 12:17:21 12:18:49 12° 307° (NW) 12:20:16 437.432
DELFI C3 27 Aug 12:22:28 12:26:05 33° 294° (WNW) 12:29:42 145.870
AIST 2 27 Aug 12:28:24 12:28:57 10° 109° (ESE) 12:29:31 435.215
TIGRISAT 27 Aug 12:28:46 12:31:07 14° 274° (W) 12:33:28 435.000
Gurwin Techsat 1B 27 Aug 12:29:48 12:32:46 15° 48° (NE) 12:35:44 435.225
VELOX 1 27 Aug 12:32:18 12:35:42 21° 91° (E) 12:39:04 145.980
DUCHIFAT 1 27 Aug 12:34:17 12:38:26 51° 260° (W) 12:42:37 145.980
CUBEBUG 1 27 Aug 12:35:06 12:38:51 26° 93° (E) 12:42:34 437.445
HUMSAT D 27 Aug 12:36:22 12:40:18 46° 291° (WNW) 12:44:12 437.325/437.525
QB50P2 27 Aug 12:36:35 12:40:40 42° 262° (W) 12:44:46 145.880/145.840
GONETS M04 27 Aug 12:38:53 12:47:21 57° 91° (E) 12:55:56
POLYITAN 1 27 Aug 12:39:07 12:43:12 41° 262° (W) 12:47:16 437.675
AUBIESAT-1 27 Aug 12:47:26 12:51:28 42° 104° (ESE) 12:55:10 437.475
NANOSAT C BR1 27 Aug 12:48:14 12:52:11 36° 263° (W) 12:56:09 145.865
DANDE 27 Aug 12:48:27 12:52:59 37° 265° (W) 12:58:48 436.750
DX 1 27 Aug 12:50:48 12:54:11 21° 92° (E) 12:57:33 434.975-435.025
M-CUBED/EXP-1 PRIME 27 Aug 12:52:43 12:56:59 57° 107° (ESE) 13:00:54 437.505
SPROUT 27 Aug 12:54:44 12:57:47 19° 90° (E) 13:00:49 437.525
Oscar 11 27 Aug 12:56:25 12:58:08 12° 308° (NW) 12:59:51 145.826/435.025
Oscar 19 27 Aug 12:59:04 13:03:49 38° 62° (ENE) 13:08:36 437.125/150
FUNcube-1 27 Aug 13:04:10 13:05:01 11° 309° (NW) 13:05:53 145.935
ESTCUBE 1 27 Aug 13:10:57 13:15:30 75° 104° (ESE) 13:20:02 437.505/2401.250
AO-7 27 Aug 13:11:13 13:17:01 22° 33° (NNE) 13:22:48 29.400- 29.500
AO-85 27 Aug 13:16:34 13:20:53 39° 32° (NNE) 13:24:51 145.980
PCSat 27 Aug 13:17:47 13:23:07 60° 122° (ESE) 13:28:28 145.827
50 SAT 27 Aug 13:17:51 13:21:25 51° 101° (E) 13:24:59 437.505
AISAT 27 Aug 13:20:39 13:25:05 56° 101° (ESE) 13:29:28 437.250
RS-15 27 Aug 13:28:02 13:37:00 25° 261° (W) 13:45:55 29.354- 29.394
BUGSAT 1 27 Aug 13:31:19 13:35:08 31° 265° (W) 13:38:57 437.445
UKube-1 27 Aug 13:31:28 13:35:34 38° 98° (E) 13:39:37 .
BEESAT 2 27 Aug 13:32:24 13:35:56 29° 331° (NNW) 13:39:29 435.950
QB50P1 27 Aug 13:34:07 13:36:33 15° 273° (W) 13:39:00 145.935-145.965
ISS 27 Aug 13:40:43 13:43:59 63° 188° (S) 13:47:15 145.825
POPSAT HIP 1 27 Aug 13:44:55 13:46:40 12° 274° (W) 13:48:26 437.405
BEESAT 3 27 Aug 13:52:16 13:55:14 20° 342° (NNW) 13:58:13 437.485
Cosmos 2499 27 Aug 13:56:35 14:04:37 75° 283° (WNW) 14:12:05 435.465 / 435.565
JAS-2 27 Aug 13:56:42 14:01:07 27° 270° (W) 14:05:50 435.910
AIST 2 27 Aug 14:02:32 14:06:36 63° 129° (SE) 14:10:44 435.215
Gurwin Techsat 1B 27 Aug 14:06:33 14:11:48 64° 69° (ENE) 14:17:05 435.225
VELOX 1 27 Aug 14:08:07 14:12:33 60° 290° (WNW) 14:16:56 145.980
CUBEBUG 1 27 Aug 14:11:04 14:15:21 46° 292° (WNW) 14:19:36 437.445
ITAMSAT 1 27 Aug 14:13:00 14:17:26 30° 59° (ENE) 14:21:53 435.822/435.867
AUBIESAT-1 27 Aug 14:22:06 14:25:46 28° 305° (NW) 14:29:12 437.475
DX 1 27 Aug 14:26:23 14:30:44 57° 291° (WNW) 14:35:01 434.975-435.025
M-CUBED/EXP-1 PRIME 27 Aug 14:27:43 14:31:10 23° 308° (NW) 14:34:25 437.505
SPROUT 27 Aug 14:29:53 14:34:09 62° 289° (WNW) 14:38:22 437.525
BEESAT 27 Aug 14:33:16 14:34:24 11° 83° (E) 14:35:31 436.000
YUBILEINY 27 Aug 14:34:36 14:36:16 11° 24° (NNE) 14:37:55 435.215
GONETS M04 27 Aug 14:36:12 14:44:31 45° 295° (WNW) 14:52:57
Oscar 19 27 Aug 14:38:15 14:43:07 41° 262° (W) 14:48:04 437.125/150
ESTCUBE 1 27 Aug 14:48:37 14:51:50 19° 303° (WNW) 14:55:03 437.505/2401.250
TISAT 1 27 Aug 14:49:49 14:53:59 56° 101° (E) 14:58:07 437.305
50 SAT 27 Aug 14:52:08 14:54:43 19° 299° (WNW) 14:57:17 437.505
AO-85 27 Aug 14:57:12 15:01:27 47° 235° (SW) 15:05:22 145.980
AISAT 27 Aug 14:57:40 15:01:15 24° 301° (WNW) 15:04:49 437.250
AO-7 27 Aug 15:00:07 15:08:11 55° 58° (ENE) 15:16:15 29.400- 29.500
PCSat 27 Aug 15:01:43 15:06:48 39° 324° (NW) 15:11:54 145.827
O/OREOS (USA 219) 27 Aug 15:02:10 15:06:32 51° 112° (ESE) 15:10:57 437.305
UKube-1 27 Aug 15:07:42 15:11:32 31° 298° (WNW) 15:15:23 .
BEESAT 2 27 Aug 15:12:21 15:14:55 16° 354° (N) 15:17:28 435.950
ISS 27 Aug 15:17:16 15:20:09 28° 207° (SSW) 15:23:01 145.825
ITUPSAT 1 27 Aug 15:18:22 15:22:22 26° 93° (E) 15:26:21 437.325
BEESAT 3 27 Aug 15:31:46 15:34:15 16° 5° (N) 15:36:44 437.485
AIST 2 27 Aug 15:41:40 15:45:23 31° 330° (NNW) 15:49:09 435.215
VELOX 1 27 Aug 15:46:33 15:48:08 12° 310° (NW) 15:49:44 145.980
Gurwin Techsat 1B 27 Aug 15:47:52 15:52:12 25° 269° (W) 15:56:33 435.225
SWISSCUBE 27 Aug 15:51:13 15:55:54 52° 101° (E) 16:00:33 437.505
ITAMSAT 1 27 Aug 15:51:35 15:56:40 55° 259° (W) 16:01:47 435.822/435.867
Cosmos 2499 27 Aug 15:53:27 15:59:07 21° 307° (NW) 16:04:33 435.465 / 435.565
DX 1 27 Aug 16:04:48 16:06:02 11° 311° (NW) 16:07:15 434.975-435.025
SPROUT 27 Aug 16:07:54 16:09:16 11° 309° (NW) 16:10:38 437.525
BEESAT 27 Aug 16:08:22 16:13:08 67° 103° (ESE) 16:17:52 436.000
KKS-1 27 Aug 16:20:11 16:22:37 14° 87° (E) 16:25:02 437.445
MOZHAYETS 4 27 Aug 16:23:53 16:27:18 20° 90° (E) 16:30:42
TISAT 1 27 Aug 16:26:05 16:29:20 22° 301° (WNW) 16:32:34 437.305
YUBILEINY 27 Aug 16:29:33 16:37:05 30° 56° (NE) 16:44:30 435.215
GONETS M04 27 Aug 16:39:36 16:44:20 15° 324° (NW) 16:49:06
Cubesat XI-IV 27 Aug 16:41:58 16:44:45 14° 47° (NE) 16:47:32 437.490
GOMX 1 27 Aug 16:42:03 16:44:29 13° 47° (NE) 16:46:58 467.674
O/OREOS (USA 219) 27 Aug 16:42:11 16:46:11 30° 314° (NW) 16:50:13 437.305
HORYU 2 27 Aug 16:45:33 16:49:40 38° 65° (ENE) 16:53:49 437.375
PCSat 27 Aug 16:47:40 16:51:40 20° 349° (N) 16:55:40 145.827
Cosmos 2504 27 Aug 16:50:52 16:54:45 15° 43° (NE) 16:58:34 435.465 / 435.565
BEESAT 2 27 Aug 16:51:05 16:54:06 20° 18° (NNE) 16:57:06 435.950
AO-7 27 Aug 16:53:07 17:01:08 49° 260° (W) 17:09:12 29.400- 29.500
CUTE-I 27 Aug 16:53:11 16:56:30 17° 50° (NE) 16:59:50 437.470
NOAA 15 27 Aug 16:54:21 16:58:07 20° 53° (NE) 17:01:55 137.62
ITUPSAT 1 27 Aug 16:55:51 17:00:30 53° 292° (WNW) 17:05:08 437.325
STARS 27 Aug 16:56:16 16:59:03 16° 88° (E) 17:01:49 437.465
BRITE-PL 27 Aug 17:02:36 17:06:53 28° 59° (ENE) 17:11:28 437.365/2234.400
BEESAT 3 27 Aug 17:09:36 17:13:05 28° 29° (NNE) 17:16:34 437.485
LilacSat-2 27 Aug 17:13:39 17:15:29 13° 56° (NE) 17:17:18 437.200
HO-68 27 Aug 17:20:01 17:23:22 14° 31° (NNE) 17:26:42 435.675
AIST 2 27 Aug 17:22:15 17:25:02 17° 354° (N) 17:27:51 435.215
SWISSCUBE 27 Aug 17:29:27 17:33:28 28° 300° (WNW) 17:37:29 437.505
NOAA 18 27 Aug 17:30:26 17:35:06 29° 57° (ENE) 17:39:46 137.9125
CUBESAT XI-V 27 Aug 17:43:32 17:46:54 19° 89° (E) 17:50:14 437.345
BEESAT 27 Aug 17:46:50 17:50:32 23° 303° (WNW) 17:54:12 436.000
KKS-1 27 Aug 17:55:20 17:59:51 87° 286° (WNW) 18:04:18 437.445
MOZHAYETS 4 27 Aug 18:00:21 18:04:53 63° 290° (WNW) 18:09:24
Cosmos 2491 27 Aug 18:15:26 18:23:13 38° 83° (E) 18:31:04 435.465 / 435.565
GOMX 1 27 Aug 18:16:21 18:21:24 53° 68° (ENE) 18:26:43 467.674
Cubesat XI-IV 27 Aug 18:18:36 18:23:51 60° 68° (ENE) 18:29:07 437.490
HORYU 2 27 Aug 18:22:19 18:26:19 32° 264° (W) 18:30:20 437.375
DOVE 4 27 Aug 18:23:55 18:28:38 35° 62° (ENE) 18:33:25 437.250
YUBILEINY 27 Aug 18:26:15 18:35:07 87° 261° (W) 18:43:52 435.215
O/OREOS (USA 219) 27 Aug 18:26:35 18:27:09 10° 338° (NNW) 18:27:43 437.305
BEESAT 2 27 Aug 18:28:44 18:32:42 55° 40° (NE) 18:36:40 435.950
CUTE-I 27 Aug 18:30:26 18:35:45 73° 70° (ENE) 18:41:04 437.470
STARS 27 Aug 18:31:31 18:35:58 75° 288° (WNW) 18:40:20 437.465
NOAA 15 27 Aug 18:32:00 18:37:16 90° 149° (SSE) 18:42:37 137.62
PCSat 27 Aug 18:32:48 18:36:58 22° 16° (NNE) 18:41:08 145.827
ITUPSAT 1 27 Aug 18:35:49 18:37:21 11° 313° (NW) 18:38:54 437.325
BRITE-PL 27 Aug 18:40:07 18:45:01 59° 260° (W) 18:50:22 437.365/2234.400
Cosmos 2504 27 Aug 18:43:07 18:50:18 52° 70° (ENE) 18:57:16 435.465 / 435.565
LilacSat-2 27 Aug 18:45:22 18:49:13 89° 247° (WSW) 18:53:04 437.200
BEESAT 3 27 Aug 18:47:08 18:51:06 69° 230° (SW) 18:55:03 437.485
AO-7 27 Aug 18:54:02 18:56:13 11° 283° (WNW) 18:58:24 29.400- 29.500
AIST 2 27 Aug 19:01:42 19:04:55 21° 18° (NNE) 19:08:07 435.215
HO-68 27 Aug 19:02:44 19:09:15 39° 55° (NE) 19:15:47 435.675
CINEMA 3 27 Aug 19:05:44 19:09:55 27° 61° (ENE) 19:14:02 145.822/145.860
NOAA 18 27 Aug 19:09:56 19:15:26 64° 257° (WSW) 19:20:57 137.9125
CUBESAT XI-V 27 Aug 19:20:04 19:24:46 71° 288° (WNW) 19:29:28 437.345
AIST 1 27 Aug 19:22:46 19:24:44 13° 57° (ENE) 19:26:42
UWE-3 27 Aug 19:25:19 19:26:14 11° 50° (NE) 19:27:10 435.000/436.395/437.385
CUBEBUG 2 27 Aug 19:25:46 19:28:20 15° 54° (NE) 19:30:52 437.445
SEEDS 27 Aug 19:30:24 19:33:37 22° 60° (ENE) 19:36:50 437.485
KKS-1 27 Aug 19:33:04 19:35:48 16° 306° (NW) 19:38:30 437.445
MOZHAYETS 4 27 Aug 19:39:20 19:41:13 12° 309° (NW) 19:43:06
CANX-2 27 Aug 19:50:53 19:54:55 47° 69° (ENE) 19:58:58 2200.000
GOMX 1 27 Aug 19:55:13 19:59:46 30° 269° (W) 20:04:32 467.674
CUTE 1.7 + AOD 2 27 Aug 19:56:59 20:01:01 47° 69° (ENE) 20:05:05 437.475
Cubesat XI-IV 27 Aug 19:59:51 20:04:19 27° 268° (W) 20:08:49 437.490
DOVE 4 27 Aug 20:01:08 20:06:11 48° 263° (W) 20:11:21 437.250
AAUSAT CUBESAT 2 27 Aug 20:01:21 20:04:42 25° 62° (ENE) 20:08:05 437.432
BEESAT 2 27 Aug 20:06:57 20:10:19 26° 240° (WSW) 20:13:41 435.950
COMPASS 1 27 Aug 20:08:57 20:12:41 34° 66° (ENE) 20:16:27 437.405
STARS 27 Aug 20:09:20 20:11:36 14° 308° (NW) 20:13:52 437.465
Cosmos 2491 27 Aug 20:11:00 20:19:40 65° 287° (WNW) 20:28:26 435.465 / 435.565
CUTE-I 27 Aug 20:12:18 20:16:22 22° 270° (W) 20:20:26 437.470
NOAA 15 27 Aug 20:14:27 20:17:49 17° 273° (W) 20:21:13 137.62
PCSat 27 Aug 20:16:22 20:21:39 48° 40° (NE) 20:26:54 145.827
LilacSat-2 27 Aug 20:23:06 20:24:08 11° 274° (W) 20:25:09 437.200
BRITE-PL 27 Aug 20:24:04 20:24:49 10° 282° (WNW) 20:25:33 437.365/2234.400
YUBILEINY 27 Aug 20:24:07 20:30:44 25° 285° (WNW) 20:37:18 435.215
BEESAT 3 27 Aug 20:26:56 20:28:03 11° 249° (WSW) 20:29:08 437.485
Cosmos 2504 27 Aug 20:36:52 20:43:31 39° 274° (W) 20:50:01 435.465 / 435.565
STRAND 1 27 Aug 20:39:49 20:44:47 48° 99° (E) 20:49:44 437.568
AIST 2 27 Aug 20:40:04 20:44:11 56° 40° (NE) 20:48:20 435.215
CINEMA 3 27 Aug 20:41:49 20:46:46 57° 260° (W) 20:51:39 145.822/145.860
Oscar 11 27 Aug 20:43:36 20:47:19 29° 63° (ENE) 20:51:03 145.826/435.025
GONETS M04 27 Aug 20:44:56 20:49:17 14° 34° (NE) 20:53:37
HO-68 27 Aug 20:49:36 20:56:44 62° 257° (WSW) 21:03:54 435.675
FUNcube-1 27 Aug 20:50:56 20:54:50 32° 65° (ENE) 20:58:40 145.935
NOAA 18 27 Aug 20:55:06 20:57:13 12° 277° (W) 20:59:20 137.9125
UWE-3 27 Aug 20:57:24 21:01:50 54° 70° (ENE) 21:06:10 435.000/436.395/437.385
AIST 1 27 Aug 20:58:44 21:03:11 76° 78° (ENE) 21:07:35
CUBESAT XI-V 27 Aug 20:58:58 21:01:23 14° 308° (NW) 21:03:48 437.345
CUBEBUG 2 27 Aug 20:59:38 21:04:18 79° 73° (ENE) 21:08:51 437.445
SEEDS 27 Aug 21:04:57 21:09:01 54° 260° (W) 21:13:08 437.485
ZACube-1 27 Aug 21:11:59 21:16:16 50° 69° (ENE) 21:20:29 437.345
CANX-2 27 Aug 21:27:37 21:31:01 23° 268° (W) 21:34:25 2200.000
CUTE 1.7 + AOD 2 27 Aug 21:33:45 21:37:07 23° 268° (W) 21:40:30 437.475
AAUSAT CUBESAT 2 27 Aug 21:36:03 21:40:00 45° 261° (W) 21:44:00 437.432
DELFI C3 27 Aug 21:39:12 21:42:53 40° 68° (ENE) 21:46:38 145.870
COMPASS 1 27 Aug 21:44:35 21:48:16 31° 265° (W) 21:52:00 437.405
Cosmos 2499 27 Aug 21:47:57 21:52:09 16° 46° (NE) 21:56:17 435.465 / 435.565
O/OREOS (USA 219) 27 Aug 21:48:10 21:50:35 14° 30° (NNE) 21:53:00 437.305
HUMSAT D 27 Aug 21:58:02 22:01:49 35° 66° (ENE) 22:05:35 437.325/437.525
PCSat 27 Aug 21:59:57 22:05:05 45° 242° (WSW) 22:10:13 145.827
AUBIESAT-1 27 Aug 22:04:44 22:08:37 27° 54° (NE) 22:12:27 437.475
M-CUBED/EXP-1 PRIME 27 Aug 22:10:04 22:14:18 34° 57° (ENE) 22:18:30 437.505
PRISM 27 Aug 22:12:09 22:16:13 48° 100° (E) 22:20:17 437.425
Cosmos 2491 27 Aug 22:12:25 22:18:37 21° 314° (NW) 22:24:54 435.465 / 435.565
AIST 2 27 Aug 22:18:54 22:22:28 27° 240° (WSW) 22:26:01 435.215
Oscar 11 27 Aug 22:19:17 22:23:21 40° 262° (W) 22:27:27 145.826/435.025
STRAND 1 27 Aug 22:19:19 22:23:50 32° 299° (WNW) 22:28:20 437.568
FUNcube-1 27 Aug 22:26:55 22:31:02 37° 263° (W) 22:35:06 145.935
UWE-3 27 Aug 22:35:00 22:38:35 23° 268° (W) 22:42:08 435.000/436.395/437.385
TIGRISAT 27 Aug 22:36:19 22:38:02 12° 85° (E) 22:39:46 435.000
AIST 1 27 Aug 22:37:38 22:40:13 15° 278° (W) 22:42:46
CUBEBUG 2 27 Aug 22:38:29 22:41:27 17° 272° (W) 22:44:23 437.445
ESTCUBE 1 27 Aug 22:40:50 22:44:23 23° 59° (ENE) 22:47:57 437.505/2401.250
GONETS M04 27 Aug 22:40:59 22:49:18 42° 63° (ENE) 22:57:33
HO-68 27 Aug 22:42:17 22:45:59 15° 279° (W) 22:49:43 435.675
AISAT 27 Aug 22:49:09 22:52:14 19° 56° (NE) 22:55:19 437.250
ZACube-1 27 Aug 22:49:15 22:52:49 23° 268° (W) 22:56:21 437.345
UKube-1 27 Aug 22:58:32 23:00:36 13° 52° (NE) 23:02:40 .
UNISAT 6 27 Aug 23:03:44 23:07:10 23° 92° (E) 23:10:34 437.425
DELFI C3 27 Aug 23:14:41 23:17:54 24° 267° (W) 23:21:10 145.870
CUSAT 1 27 Aug 23:25:59 23:27:50 14° 81° (E) 23:29:56 437.405
O/OREOS (USA 219) 27 Aug 23:26:39 23:31:08 49° 53° (NE) 23:35:36 437.305
HUMSAT D 27 Aug 23:33:48 23:37:30 30° 265° (W) 23:41:10 437.325/437.525
VELOX 1 27 Aug 23:35:07 23:39:15 39° 65° (ENE) 23:43:25 145.980
CUBEBUG 1 27 Aug 23:36:37 23:40:50 46° 67° (ENE) 23:45:05 437.445
AUBIESAT-1 27 Aug 23:38:12 23:42:48 59° 253° (WSW) 23:47:20 437.475
Cosmos 2499 27 Aug 23:40:04 23:47:07 59° 72° (ENE) 23:54:06 435.465 / 435.565
SO-50 27 Aug 23:40:11 23:42:41 14° 111° (ESE) 23:45:09 436.795
ANTELSAT 27 Aug 23:40:15 23:44:28 47° 99° (E) 23:48:35 437.575/2403.000
M-CUBED/EXP-1 PRIME 27 Aug 23:44:10 23:48:41 45° 255° (WSW) 23:53:12 437.505
POPSAT HIP 1 27 Aug 23:46:59 23:47:52 11° 84° (E) 23:48:45 437.405
PRISM 27 Aug 23:47:55 23:51:19 25° 299° (WNW) 23:54:43 437.425
